TimeCDT,TemperatureF,Dew PointF,Humidity,Sea Level PressureIn,VisibilityMPH,Wind Direction,Wind SpeedMPH,Gust SpeedMPH,PrecipitationIn,Events,Conditions,WindDirDegrees,DateUTC
12:52 AM,70.0,63.0,78,29.68,10.0,SSW,11.5,-,N/A,,Clear,210,2013-09-18 05:52:00
1:52 AM,68.0,62.1,81,29.66,10.0,South,15.0,-,N/A,,Clear,190,2013-09-18 06:52:00
2:52 AM,69.1,61.0,75,29.66,10.0,SSW,13.8,-,N/A,,Clear,210,2013-09-18 07:52:00
3:52 AM,64.9,61.0,87,29.65,10.0,SW,10.4,-,N/A,,Clear,220,2013-09-18 08:52:00
4:52 AM,62.1,60.1,93,29.64,10.0,SSW,6.9,-,N/A,,Clear,200,2013-09-18 09:52:00
5:52 AM,62.1,60.1,93,29.63,10.0,SSW,5.8,-,N/A,,Clear,200,2013-09-18 10:52:00
6:52 AM,62.1,60.1,93,29.64,10.0,Calm,Calm,-,N/A,,Clear,0,2013-09-18 11:52:00
7:52 AM,60.1,59.0,96,29.64,7.0,Calm,Calm,-,N/A,,Clear,0,2013-09-18 12:52:00
8:52 AM,66.0,62.1,87,29.64,10.0,SSW,6.9,-,N/A,,Clear,210,2013-09-18 13:52:00
9:52 AM,72.0,62.1,71,29.64,10.0,WSW,5.8,-,N/A,,Clear,240,2013-09-18 14:52:00
10:52 AM,78.1,62.1,58,29.64,10.0,SSW,8.1,-,N/A,,Clear,200,2013-09-18 15:52:00
11:52 AM,82.0,62.1,51,29.61,10.0,South,9.2,-,N/A,,Clear,190,2013-09-18 16:52:00
12:52 PM,88.0,63.0,43,29.60,10.0,Variable,6.9,-,N/A,,Clear,0,2013-09-18 17:52:00
1:52 PM,91.0,60.1,35,29.58,10.0,SW,10.4,-,N/A,,Clear,220,2013-09-18 18:52:00
2:52 PM,91.9,57.9,32,29.56,10.0,Variable,5.8,-,N/A,,Clear,0,2013-09-18 19:52:00
3:52 PM,93.9,55.0,27,29.55,10.0,South,12.7,18.4,N/A,,Partly Cloudy,180,2013-09-18 20:52:00
4:52 PM,96.1,48.0,19,29.55,10.0,West,13.8,19.6,N/A,,Clear,260,2013-09-18 21:52:00
5:52 PM,93.9,45.0,18,29.56,10.0,West,6.9,-,N/A,,Clear,260,2013-09-18 22:52:00
6:52 PM,91.0,46.0,21,29.55,10.0,SW,6.9,-,N/A,,Clear,220,2013-09-18 23:52:00
7:52 PM,80.1,51.1,36,29.57,7.0,SSW,5.8,-,N/A,,Clear,210,2013-09-19 00:52:00
8:52 PM,73.9,52.0,46,29.58,9.0,SSW,8.1,-,N/A,,Clear,210,2013-09-19 01:52:00
9:52 PM,71.1,51.1,49,29.59,10.0,SSW,5.8,-,N/A,,Clear,210,2013-09-19 02:52:00
10:52 PM,73.9,51.1,45,29.61,10.0,NW,11.5,-,N/A,,Clear,310,2013-09-19 03:52:00
11:52 PM,70.0,57.0,63,29.65,10.0,NW,6.9,-,N/A,,Clear,320,2013-09-19 04:52:00